Regional Weather Roundup
Issued by NWS Sterling, VA

Home | Current Version | Previous Version | Graphics & Text | Print | Product List | Glossary On
Versions: 1 2 3 4 5 6 7 8 9 10 11 12 13 14 15 16 17 18 19 20 21 22 23 24 25 26 27 28 29 30 31 32 33 34 35 36 37 38 39 40 41 42 43 44 45 46 47 48 49 50
000
ASUS41 KLWX 280010
RWRLWX

REGIONAL WEATHER ROUNDUP
NATIONAL WEATHER SERVICE BALTIMORE MD/WASHINGTON DC
800 PM EDT SUN JUL 27 2014

Note: "FAIR" indicates few or no clouds below 12,000 feet
with no significant weather and/or obstructions to visibility.
 TC=TEMPERATURE CELSIUS

 * =Non NWS site. Station does not report precipitation (e.g. rain,
    snow, etc.), thunder, or fog.

DCZ001-MDZ009-015-VAZ040>042-051-053>054-280100-
WASHINGTON METRO
  /KDAA//-FT BELVOIR

CITY           SKY/WX    TMP DP  RH WIND       PRES   REMARKS
WASHINGTON NAT MOCLDY    83  71  67 SW12      29.70F
DULLES         PTCLDY    79  71  76 S8        29.70S
ANDREWS AFB    PTCLDY    80  72  77 SW10      29.71S
QUANTICO       CLEAR     82  71  69 SW8       29.71S
COLLEGE PARK*  CLEAR     82  72  69 SW6       29.69S
LEESBURG*      PTCLDY    81  73  78 SW7       29.70F
MANASSAS*      CLEAR     81  72  74 SW6       29.71S
GAITHERSBURG*  MOCLDY    79  70  73 S6        29.74S

$$

MDZ006>007-011-014-280100-
BALTIMORE METRO

CITY           SKY/WX    TMP DP  RH WIND       PRES   REMARKS
BWI AIRPORT    MOCLDY    80  70  71 SW7       29.69R
MD SCIENCE CTR   N/A     83  69  62 MISG      29.69R
MARTIN STATE   CLOUDY    82  73  74 S9        29.70R
ANNAPOLIS      PTCLDY    80  70  71 S6        29.69S
FORT MEADE*    PTCLDY    77  70  78 SW8       29.72R

$$

MDZ012-015-019>023-280100-
MARYLAND EASTERN SHORE

CITY           SKY/WX    TMP DP  RH WIND       PRES   REMARKS
OCEAN CITY     MOCLDY    80  71  74 W8        29.75R
SALISBURY      MOCLDY    81  71  71 SW8       29.73S
BAY BRIDGE AP*   N/A     81  72  74 S7        29.70S
CAMBRIDGE*     CLOUDY    81  72  74 S5        29.72S
EASTON*        MOCLDY    82  73  74 SW7       29.75S

$$

MDZ017>025-280100-
SOUTHERN MARYLAND

CITY           SKY/WX    TMP DP  RH WIND       PRES   REMARKS
PATUXENT RIVER MOCLDY    80  71  74 S6        29.72S
ST INIGOES     MOCLDY    80  70  71 S8        29.72S
LEONARDTOWN*   MOCLDY    81  70  69 SW7       29.74S

$$

MDZ003>005-280100-
NORTH CENTRAL MARYLAND

CITY           SKY/WX    TMP DP  RH WIND       PRES   REMARKS
FREDERICK*     MOCLDY    81  73  78 S7        29.70F
HAGERSTOWN APT CLOUDY    79  71  76 S9        29.68S
WESTMINSTER*   MOCLDY    81  73  78 S7        29.71S

$$

MDZ501>502-280100-
WESTERN MARYLAND

CITY           SKY/WX    TMP DP  RH WIND       PRES   REMARKS
OAKLAND*       CLOUDY    63 N/A N/A S7        29.80F
CUMBERLAND*    CLOUDY    75  68  78 SW14      29.72F

$$

VAZ025>031-280100-
SHENANDOAH VALLEY

CITY           SKY/WX    TMP DP  RH WIND       PRES   REMARKS
WINCHESTER*    MOCLDY    79  70  73 S3        29.70F
STAUNTON*      PTCLDY    79  67  66 S9        29.78F

$$

WVZ021-048>050-054>055-280100-
EASTERN WEST VIRGINIA PANHANDLE

CITY           SKY/WX    TMP DP  RH WIND       PRES   REMARKS
MARTINSBURG    CLOUDY    78  69  73 SW7       29.70S
PETERSBURG*    MOCLDY    77  62  60 W5        29.73R

$$

VAZ036>039-050-280100-
CENTRAL FOOTHILLS

CITY           SKY/WX    TMP DP  RH WIND       PRES   REMARKS
CHARLOTTESVILL CLEAR     80  69  69 SW7       29.74F
ORANGE*        CLEAR     81  70  69 S3        29.74F

$$

VAZ055>057-280100-
NORTH AND CENTRAL PIEDMONT

CITY           SKY/WX    TMP DP  RH WIND       PRES   REMARKS
FREDERICKSBRG* CLEAR     82  73  72 SW9G16    29.71S
STAFFORD*      CLEAR     80  78  94 SW7       29.76S

$$

NCZ024-NYZ072-PAZ021-071-VAZ022-071-280100-
OTHER REGIONAL OBSERVATIONS

CITY           SKY/WX    TMP DP  RH WIND       PRES   REMARKS
NEW YORK CITY  CLEAR     83  62  49 CALM      29.70S
PHILADELPHIA   MOCLDY    83  71  67 S13       29.68S
PITTSBURGH     CLOUDY    72  67  84 N5        29.70R
ROANOKE        MOCLDY    82  66  58 SW6       29.82R
RICHMOND       PTCLDY    83  70  64 S9        29.75F
RALEIGH        CLOUDY    81  70  69 SW6       29.81R

$$

ANZ530>537-280100-
MARINE OBSERVATIONS

STATION/POSITION TIME  TEMP    WIND        PRES
                       AIR SEA DIR/SP/G
                 (UTC) (F)     (DEG/KT/KT) (MB)
THOMAS PT LIGHT  0000   80 80  200/ 13/ 14 1006.0F
BALT KEY BRIDGE  0000   82     190/  7/ 10 1005.1R
COVE POINT       0000   80     200/  8/  9 1006.3S
LEWISETTA        0000   82 81  210/  8/ 10 1006.4S
SOLOMONS ISLAND  0000      81                N/A
PINEY POINT      0000          210/  9/ 10   N/A

$$



USA.gov is the U.S. government's official web portal to all federal, state and local government web resources and services.